Wind_Speed
60 56 53 52 52 53 57 62 66 66 63 60 58 57 54 51 50 48 46 43 42 41 42 42 41 41 41 41 42 42 42 43 43 43 42 40 39 38 38 37 36 35 35 33 33 33 34 34 35 35 37 37 37 37 38 37 35 34 33 33 34 35 35 34 34 34 35 36 37 37 37 38 39 39
62 59 56 55 54 54 55 57 62 65 66 63 60 58 56 54 52 49 47 46 45 44 44 44 43 43 43 42 42 41 42 42 43 43 42 41 40 39 38 37 35 35 34 33 33 34 34 34 35 36 37 37 37 37 37 35 34 33 34 34 35 35 35 35 34 34 35 37 37 38 38 39 39 40
64 61 60 57 55 54 55 57 59 60 62 64 63 60 58 56 53 51 50 49 48 47 46 45 45 45 44 43 42 41 41 41 42 42 42 41 40 39 37 36 34 33 32 32 33 34 35 35 35 36 37 37 38 37 36 35 34 34 35 35 36 36 36 35 35 35 36 37 38 38 39 39 40 41
65 63 61 59 57 55 55 57 60 58 56 59 62 62 60 58 55 53 52 52 50 48 48 48 47 46 44 43 42 41 41 41 41 42 42 41 40 39 37 35 34 33 32 33 34 35 35 35 35 36 36 37 38 37 36 35 34 35 36 36 37 37 36 36 35 35 36 37 38 39 39 40 41 42
68 66 64 61 58 57 56 56 59 59 56 56 57 58 59 59 57 55 54 53 51 50 50 50 49 47 45 44 43 41 41 41 42 43 43 42 40 39 37 36 34 33 33 34 34 35 36 36 36 36 36 37 37 36 35 34 35 36 37 37 37 37 36 36 35 36 37 38 38 39 40 41 42 43
69 67 66 63 60 59 57 57 58 59 59 58 55 54 56 57 57 57 57 56 53 52 52 52 50 48 46 45 43 42 42 43 43 43 43 41 40 39 39 37 35 35 35 35 35 35 36 36 36 36 36 36 35 34 34 35 36 37 37 38 37 37 37 36 37 37 38 38 39 40 41 42 43 44
71 69 67 65 63 61 59 59 59 58 61 62 57 54 54 55 55 56 57 56 54 53 53 53 51 49 48 46 45 45 44 44 43 43 42 41 41 40 39 37 36 35 35 35 35 36 37 36 36 36 35 34 34 34 34 36 37 37 38 38 37 37 37 38 38 38 38 39 40 41 42 43 44 45
70 71 70 67 65 63 60 59 58 58 60 61 58 55 54 55 54 54 54 53 52 52 53 53 51 49 48 48 48 47 46 44 44 44 43 42 42 41 39 37 36 36 36 37 37 37 37 36 36 35 34 33 33 34 35 37 38 39 38 38 37 37 38 38 39 38 39 40 41 42 43 44 45 46
66 71 71 69 67 64 62 59 57 58 59 57 55 55 54 54 54 54 53 52 50 50 51 51 50 49 48 48 48 47 46 46 45 45 46 45 43 41 39 37 36 37 39 39 38 37 36 36 35 35 34 34 34 34 36 38 39 39 39 38 38 38 39 39 39 39 40 41 42 43 44 45 46 47
61 68 71 70 68 66 63 59 55 57 59 56 54 55 55 54 54 54 53 51 50 49 49 49 49 47 46 46 47 47 47 47 47 48 48 46 43 41 38 36 37 39 41 40 38 36 35 35 35 35 35 34 34 35 37 39 39 40 39 39 40 40 40 40 40 40 41 42 43 44 45 46 47 49
59 63 69 71 70 67 65 61 56 55 57 57 56 56 57 57 55 53 52 50 48 48 48 48 47 47 47 47 46 47 47 47 48 49 46 43 41 40 39 38 40 42 41 38 36 34 34 35 36 36 35 34 34 36 38 39 40 40 40 41 41 41 41 40 40 41 42 43 44 45 46 47 49 50
60 60 66 71 71 68 66 62 58 56 57 58 57 57 59 59 56 54 51 48 47 47 47 47 47 46 46 45 44 45 45 44 44 44 42 41 41 41 40 39 40 40 39 36 34 33 34 36 36 36 35 34 35 37 38 40 40 40 41 42 42 41 41 40 41 41 42 43 45 46 47 48 50 52
63 61 64 69 72 70 66 63 60 58 57 57 58 58 59 58 55 54 52 48 47 46 46 47 45 43 43 43 44 45 44 42 42 43 43 42 42 42 40 39 38 39 37 35 33 34 35 37 37 36 35 34 36 38 39 41 41 41 42 43 42 40 40 40 41 41 43 44 46 47 48 50 52 53
67 64 63 66 71 71 67 63 61 59 57 57 59 60 59 56 54 54 52 49 46 44 45 46 42 39 40 43 44 44 43 43 43 43 42 41 41 40 38 37 38 38 36 35 34 34 36 37 37 35 34 35 37 38 40 42 42 42 43 43 40 39 39 40 41 42 43 45 46 48 49 51 53 53
69 67 64 64 69 71 68 63 62 60 59 59 59 61 60 57 55 54 51 48 45 43 44 45 41 38 41 44 43 41 42 43 41 39 39 41 40 39 38 39 39 38 37 36 35 35 36 37 37 35 35 37 38 39 41 42 43 43 43 41 39 38 39 40 41 42 44 45 47 49 51 52 52 52
70 69 67 64 67 71 69 64 61 61 61 59 59 61 60 57 56 55 52 48 46 45 46 45 42 40 43 45 42 40 42 42 39 38 40 41 40 40 41 40 39 39 39 38 36 36 37 38 37 35 36 38 38 39 41 43 43 42 41 39 38 38 39 40 42 43 44 46 48 50 52 52 52 52
70 71 70 66 65 69 69 65 62 62 60 58 59 61 61 59 58 56 53 51 48 46 46 45 42 42 43 43 41 41 41 37 34 35 36 34 34 36 38 38 39 41 40 37 36 37 37 38 37 36 37 38 39 40 42 42 41 40 39 39 38 38 39 41 43 44 46 47 49 51 52 52 52 52
70 71 70 68 65 67 68 66 64 62 59 58 60 62 62 62 60 55 52 52 50 47 47 46 43 40 40 40 40 42 40 34 32 33 33 31 33 36 38 39 40 40 38 37 37 37 38 38 37 37 38 39 39 40 41 41 40 40 40 39 38 39 40 42 44 45 47 48 50 52 52 52 52 53
69 71 71 70 67 66 68 67 65 62 59 60 62 62 62 62 59 54 51 51 51 50 49 46 41 38 37 38 40 42 40 38 37 36 34 35 38 41 43 43 40 38 37 37 38 39 39 38 37 37 39 40 40 40 41 41 40 41 40 39 39 40 42 44 46 47 48 50 51 52 53 53 53 53
66 71 72 71 69 68 68 68 66 63 60 60 61 60 59 59 57 52 51 52 51 50 47 43 40 39 39 39 41 41 40 40 41 40 40 42 44 47 48 45 41 39 38 38 40 40 39 38 38 39 40 40 39 40 41 41 41 41 41 40 41 42 44 46 47 48 50 51 53 53 53 53 53 54
62 70 72 71 70 69 69 69 67 64 62 62 62 61 59 57 54 52 51 51 50 48 46 43 42 42 42 41 42 42 40 39 40 42 44 47 49 52 51 45 41 39 38 39 40 39 38 38 39 40 40 40 39 40 41 41 41 41 42 42 43 44 46 47 48 50 51 53 54 54 54 54 54 54
59 68 73 72 71 71 70 69 67 65 64 65 64 61 58 55 53 51 50 50 50 50 48 45 43 42 42 43 44 44 43 42 43 46 48 50 52 51 48 43 39 38 38 39 38 37 38 39 40 40 39 39 39 40 41 41 41 42 43 44 45 46 47 49 50 51 53 54 55 54 54 54 54 54
56 66 72 72 72 72 71 69 67 65 64 64 63 60 56 52 51 51 51 52 52 51 47 44 42 42 42 43 45 45 45 46 47 49 51 51 48 45 42 39 37 37 37 36 36 37 38 39 38 38 37 38 39 40 40 41 42 43 44 45 46 47 48 50 51 53 54 55 55 54 54 55 55 55
53 63 71 72 72 73 71 68 66 65 64 62 59 59 56 54 53 54 53 53 50 48 46 44 44 45 45 45 44 45 46 48 49 50 50 47 42 39 37 36 36 35 34 34 35 36 37 36 36 36 36 37 39 40 41 42 43 45 45 45 46 48 50 51 53 54 55 56 55 55 55 56 56 56
52 60 70 72 72 72 71 67 65 64 64 62 58 57 57 56 57 57 54 51 48 46 46 46 46 47 46 45 45 46 47 47 46 46 45 41 38 37 36 35 34 33 33 34 35 35 34 33 34 35 36 38 39 41 42 43 44 45 45 45 47 48 50 52 54 55 56 56 56 55 55 56 56 57
51 59 69 72 72 72 69 66 65 64 63 61 57 56 57 57 56 55 54 52 50 48 48 47 47 48 47 47 47 47 45 44 43 42 40 38 38 37 35 33 32 33 33 34 33 32 32 32 33 35 37 39 41 43 44 45 45 45 45 45 47 48 50 52 54 55 56 56 56 55 55 56 57 58
51 59 68 72 72 71 68 65 64 62 61 59 55 53 55 55 53 52 53 52 51 50 49 49 47 47 47 46 45 44 43 42 40 38 37 37 38 36 33 32 33 33 34 33 32 32 32 33 35 37 39 41 43 44 45 45 44 45 45 46 48 49 51 53 54 55 56 57 56 56 56 56 58 59
51 60 68 71 71 69 65 64 63 61 61 58 53 51 53 53 52 52 52 51 50 49 46 44 44 44 44 43 42 41 40 39 37 36 37 38 36 33 32 32 33 34 34 34 34 34 35 36 38 39 41 43 44 45 45 45 44 45 46 48 49 51 52 53 54 55 56 57 57 57 56 56 58 59
53 61 67 69 68 65 63 63 63 62 62 60 54 52 54 53 52 53 51 48 46 45 42 40 42 44 43 41 40 38 37 35 35 35 37 36 34 32 32 33 34 35 36 36 36 37 38 39 40 42 43 44 45 45 45 45 45 46 47 49 50 52 53 53 54 55 55 56 56 56 56 56 58 59
56 63 66 66 65 64 63 63 60 59 60 60 56 54 53 54 54 53 49 45 44 45 44 43 43 42 40 38 36 35 33 33 34 35 35 33 32 32 33 34 36 37 37 37 38 39 40 41 42 44 44 45 46 46 45 45 45 46 47 49 51 52 53 53 54 54 54 54 54 55 56 57 57 58
58 63 65 65 64 64 64 60 54 52 55 60 61 55 50 53 54 51 49 49 49 48 46 45 42 40 36 34 32 30 31 32 33 33 33 33 33 33 34 36 38 39 39 39 39 40 40 42 43 44 44 46 47 46 45 45 46 47 48 49 50 51 52 52 52 52 52 53 54 55 56 56 57 58
59 61 63 64 64 64 62 56 50 51 53 59 63 57 50 50 52 51 50 52 51 47 42 39 38 36 33 31 29 29 30 31 32 33 34 34 34 35 36 38 39 39 39 39 39 40 41 43 44 44 45 47 48 46 45 46 47 48 49 50 51 51 51 52 52 52 52 53 54 55 55 55 56 58
58 60 63 64 63 63 61 54 51 50 49 52 58 58 52 51 52 52 53 53 49 44 38 36 35 33 31 29 28 29 30 31 32 34 35 35 36 36 38 39 39 40 41 40 40 42 43 43 44 44 45 47 47 46 46 47 47 48 49 50 51 51 51 52 52 52 52 52 53 54 55 56 57 58
58 60 62 63 61 60 58 54 51 51 50 50 54 56 54 54 55 55 55 52 46 41 38 36 34 31 28 27 27 28 30 32 33 34 36 36 37 38 38 39 39 40 42 42 43 43 43 43 43 44 45 47 47 46 47 47 48 48 49 50 51 51 51 52 52 51 51 51 51 52 54 56 57 58
59 60 60 60 59 57 57 55 53 54 55 55 56 57 57 57 57 55 51 47 42 40 38 36 32 28 26 26 28 31 33 34 34 35 36 36 37 37 37 37 38 39 41 42 42 41 41 42 43 44 46 47 47 47 47 48 48 48 49 49 50 51 51 51 51 50 51 50 51 52 53 55 56 58
54 56 55 55 56 58 59 55 52 53 55 55 55 57 57 56 54 49 46 43 41 40 37 32 28 26 27 29 32 34 35 35 35 35 35 34 35 35 35 36 37 37 38 39 39 40 41 42 43 45 47 48 48 48 48 48 48 49 49 49 50 51 51 51 50 49 50 50 50 52 53 54 56 57
50 51 49 49 52 55 56 51 48 51 53 51 51 53 53 50 48 46 43 42 40 37 33 29 27 28 29 31 32 32 33 33 33 33 33 33 33 33 34 34 35 35 36 36 37 39 41 42 44 46 48 49 49 49 49 49 48 49 49 49 50 50 50 49 48 48 48 49 50 51 52 53 55 57
48 48 47 47 49 51 52 51 49 51 51 49 48 48 47 45 44 42 39 37 34 31 29 28 27 27 27 27 27 29 29 30 30 31 32 32 32 32 32 33 33 34 35 36 38 40 42 44 46 47 48 49 49 50 50 50 49 49 49 49 49 48 47 47 46 46 47 48 49 51 52 53 55 56
41 41 45 50 52 51 50 50 49 48 47 45 45 45 45 42 40 36 33 31 28 27 27 26 24 23 22 23 26 28 28 28 29 30 30 30 31 31 31 32 33 34 35 37 39 41 43 45 47 48 49 49 49 50 50 50 50 49 49 48 48 48 47 46 46 45 46 47 49 50 52 53 55 56
32 35 44 53 55 51 46 45 46 46 44 43 45 45 43 40 36 33 29 27 26 26 25 22 19 19 21 24 27 30 31 31 31 31 30 30 30 30 31 32 33 35 37 39 41 43 44 46 48 49 49 49 49 49 49 49 49 49 48 48 48 47 46 46 45 46 46 47 49 50 51 53 55 56
29 35 44 52 52 47 42 42 45 45 44 44 44 43 40 37 33 30 27 25 26 25 23 20 20 21 24 28 31 32 33 32 31 30 30 30 30 31 31 33 35 37 38 40 41 43 45 47 49 49 49 49 48 47 47 47 47 47 47 47 47 46 46 45 44 45 46 47 49 50 52 54 55 57
31 37 45 50 48 42 40 42 43 43 43 44 43 40 38 34 29 26 25 26 25 24 24 24 23 24 26 29 31 31 31 31 30 30 30 31 31 32 33 34 36 37 38 40 42 44 47 48 48 48 48 47 46 45 45 45 45 45 45 46 45 45 44 44 44 45 46 48 49 50 52 54 55 57
32 36 42 47 45 40 39 40 40 39 39 40 40 38 35 32 28 26 27 27 25 25 27 26 23 24 26 28 28 29 30 30 31 31 32 32 33 33 34 35 36 37 39 41 44 46 47 48 47 46 46 45 44 43 43 43 43 43 43 43 43 43 43 43 44 45 47 48 50 51 53 54 56 57
34 36 38 40 40 39 37 37 38 37 37 38 39 38 37 34 31 29 28 27 25 25 26 24 23 25 26 26 26 27 28 29 30 32 33 33 34 35 36 36 37 39 41 44 46 47 47 47 46 45 44 43 42 42 41 41 41 41 41 41 41 41 42 44 45 46 47 49 51 52 54 55 56 58
35 36 36 37 38 37 34 34 38 41 41 40 40 40 38 35 32 30 28 26 24 23 23 24 26 27 26 26 27 28 28 29 30 31 32 34 35 36 37 38 40 42 44 46 47 47 46 45 44 43 43 42 41 41 41 41 41 40 40 39 40 41 42 44 46 47 48 50 51 52 54 55 57 59
Wind_Direction
237 239 239 238 234 233 235 238 238 238 238 239 240 241 243 244 245 246 247 247 246 247 248 249 250 252 254 255 256 257 259 261 263 265 267 268 269 271 272 274 277 280 283 286 290 293 295 298 301 301 302 302 303 304 307 310 311 311 310 307 307 307 306 304 301 300 300 303 305 307 308 309 308 309
236 236 237 237 236 234 235 239 240 239 238 238 239 240 241 242 244 246 247 247 247 248 249 250 252 254 255 257 258 259 261 263 264 266 268 269 270 272 273 275 277 279 282 286 290 292 294 298 300 300 300 301 302 305 308 310 310 310 308 306 306 305 304 302 299 298 300 303 305 307 308 308 309 310
234 235 235 235 235 234 234 238 241 240 239 238 238 238 239 240 243 245 246 246 247 249 251 252 254 255 256 258 260 261 262 264 265 266 268 270 271 273 274 275 277 279 283 287 289 291 294 297 299 299 299 300 303 306 308 309 310 308 306 305 305 304 303 301 298 298 300 302 305 307 308 308 309 309
233 234 234 234 233 233 233 236 239 240 240 239 238 237 238 239 240 243 245 246 247 249 251 253 254 256 257 258 260 262 264 265 266 267 268 271 272 274 275 276 279 281 284 286 288 290 293 296 297 297 298 300 304 306 308 309 309 307 305 304 304 303 302 300 297 297 300 303 305 307 308 309 308 308
233 233 233 233 233 232 232 234 238 240 240 239 237 237 238 238 239 240 243 245 247 249 251 253 254 256 258 259 260 262 263 264 265 267 269 272 274 275 276 278 281 282 284 285 286 289 292 294 295 296 298 301 304 307 308 309 308 306 305 303 302 301 300 298 296 297 300 303 306 307 308 308 308 308
232 233 232 232 232 231 230 233 237 241 241 238 237 238 239 238 239 239 242 244 246 249 251 253 254 255 256 258 259 260 261 263 265 268 270 273 274 276 277 279 280 281 283 284 286 289 291 293 293 296 299 303 305 306 307 307 305 304 304 302 301 300 298 296 295 296 300 304 306 307 307 307 307 308
231 232 232 231 232 231 230 232 236 240 242 239 237 238 239 239 240 240 242 244 245 248 250 252 253 254 255 256 257 259 260 263 266 268 270 272 274 275 277 278 279 281 282 283 286 289 290 291 293 296 300 303 304 305 304 304 303 303 303 301 300 298 297 295 294 296 300 304 306 306 307 307 307 308
230 231 231 231 231 231 231 231 234 237 239 237 235 237 239 240 240 241 242 243 244 246 248 250 252 253 254 255 257 259 261 263 266 268 269 271 272 274 275 277 279 280 281 284 287 288 288 290 294 297 300 301 301 301 301 301 302 302 301 299 299 298 296 294 294 297 301 303 305 306 306 307 308 308
230 229 230 230 230 230 230 231 232 232 233 234 235 237 239 239 240 241 242 243 244 246 248 249 251 252 254 256 258 259 261 263 264 266 267 268 270 272 274 275 277 278 281 284 285 285 287 291 295 297 299 299 299 299 298 300 300 300 299 298 299 299 297 295 295 297 301 303 304 306 307 307 307 307
229 228 229 229 229 229 228 228 230 229 228 232 235 237 238 239 240 241 243 243 243 245 247 248 250 251 253 255 258 260 262 263 263 264 264 266 268 270 272 273 275 278 281 282 282 284 288 292 295 297 298 298 297 296 297 298 299 298 298 297 298 299 297 295 295 297 300 302 304 306 307 307 306 306
229 227 227 228 228 228 226 226 227 227 227 231 235 236 238 240 241 242 242 241 241 244 246 248 249 251 254 256 259 261 263 264 264 264 263 264 265 268 270 272 275 278 278 278 280 284 289 292 294 296 297 296 295 294 295 297 298 298 298 297 296 296 296 295 295 297 300 303 305 306 307 306 306 307
228 227 226 226 227 227 226 226 225 225 227 231 234 236 238 240 241 241 241 240 240 243 245 248 250 252 254 255 257 260 261 262 262 260 260 262 264 267 270 272 274 275 274 275 280 286 289 291 293 295 295 294 292 292 294 296 297 297 298 297 295 294 294 295 295 298 300 303 305 306 306 307 307 307
226 226 225 225 226 226 225 225 224 223 226 229 232 235 237 238 239 240 240 239 239 242 245 248 250 251 253 255 256 256 255 253 255 258 261 264 266 268 268 269 270 270 271 274 280 285 288 290 292 293 293 291 290 291 294 294 295 296 297 297 295 293 293 294 296 298 301 303 305 306 306 306 306 308
225 225 225 224 224 225 225 224 224 222 224 227 230 231 232 235 237 238 239 239 239 241 245 247 247 250 255 257 254 252 252 253 257 261 265 267 266 265 265 266 267 268 271 276 280 284 286 289 291 292 291 289 289 292 293 293 293 295 296 295 293 292 293 295 297 299 301 303 304 305 305 306 306 308
224 224 224 223 223 223 224 224 223 222 223 225 228 228 228 232 235 236 237 237 236 237 241 244 246 247 249 251 251 251 254 256 259 265 268 267 265 265 266 267 268 271 274 276 279 282 285 288 291 290 288 288 291 294 294 293 294 295 294 293 292 292 293 295 297 299 301 303 304 304 304 305 307 309
224 223 223 223 222 221 222 222 222 222 222 224 226 225 226 231 235 236 237 237 234 234 237 242 245 244 244 247 250 253 254 257 263 268 269 268 267 267 266 268 270 272 273 275 279 282 285 288 289 287 285 288 293 294 295 295 296 294 292 291 292 293 294 296 297 299 301 302 303 303 304 305 307 309
223 222 221 222 221 220 220 221 221 221 222 223 224 223 224 229 233 235 236 237 235 234 237 240 240 241 244 247 249 252 254 258 262 264 265 267 267 266 267 270 272 272 273 276 280 282 285 287 287 284 285 289 293 295 296 296 295 292 290 291 292 293 294 296 297 299 300 301 302 303 304 306 307 309
222 221 221 220 220 218 218 219 219 219 219 221 223 224 225 228 231 233 235 237 237 234 234 238 239 241 246 249 249 252 253 251 247 250 256 260 259 261 268 274 274 273 275 278 280 282 285 286 285 284 285 290 293 294 295 295 293 291 290 291 292 293 295 296 297 299 300 301 302 303 304 306 307 308
221 220 219 219 218 218 217 218 218 218 217 219 223 224 224 225 228 230 234 238 238 235 234 237 238 240 242 241 242 245 248 246 244 244 247 250 253 260 268 273 274 275 276 279 281 283 284 284 284 285 287 291 292 293 293 293 291 291 291 291 292 293 294 296 297 299 300 301 302 303 305 306 307 308
220 218 217 217 217 217 217 216 216 216 215 217 220 222 221 222 225 229 233 236 236 235 235 235 235 237 235 231 232 237 241 244 245 244 245 249 256 263 267 270 273 275 276 279 282 283 283 283 284 287 289 290 291 291 292 292 292 292 292 292 292 293 294 296 298 299 301 302 302 303 305 306 307 308
220 216 215 215 215 215 216 215 215 214 212 213 216 218 219 221 223 228 233 234 234 233 233 231 232 235 233 228 229 233 236 240 244 246 250 256 260 263 266 269 272 274 277 281 282 282 282 282 285 287 289 289 289 290 291 292 293 293 293 293 293 293 295 297 298 300 302 302 303 304 305 306 307 309
222 216 213 213 213 214 215 214 213 213 211 211 213 215 217 220 223 228 231 232 232 232 232 231 231 232 230 227 228 232 237 243 249 253 257 261 263 264 265 268 271 275 279 282 282 282 281 283 286 288 288 288 288 290 292 293 293 293 293 293 293 294 296 297 299 301 302 302 303 305 306 307 309 310
223 216 212 211 212 213 214 213 212 211 211 212 213 214 215 219 224 226 227 228 229 230 229 227 227 228 227 228 230 235 242 248 253 258 261 262 262 263 264 268 273 277 279 281 281 281 282 285 287 288 288 288 289 290 292 293 293 293 293 293 294 295 297 299 300 301 302 303 304 306 308 309 310 312
223 216 211 209 210 212 213 212 210 210 211 212 214 214 215 220 224 223 221 222 224 225 223 221 222 225 227 229 233 239 246 252 256 259 259 259 260 263 266 270 274 276 277 278 280 282 284 286 287 288 288 288 290 291 292 292 293 293 294 294 296 297 298 299 301 302 303 305 306 308 310 311 312 313
222 215 209 208 209 211 212 211 210 210 211 212 214 216 217 221 223 220 216 216 218 219 220 221 222 225 228 231 237 243 249 254 256 256 255 257 262 265 268 270 272 273 274 276 279 282 284 286 287 288 289 290 292 293 293 293 293 293 294 295 296 297 298 300 301 303 305 307 308 310 312 312 313 314
220 213 208 207 208 210 211 210 209 209 211 212 214 218 220 221 219 215 213 213 214 216 219 221 224 229 233 236 241 246 249 251 253 254 256 260 263 265 267 268 269 270 272 275 277 280 283 285 287 288 290 293 295 296 296 295 294 294 295 296 297 298 299 301 303 304 306 308 310 312 313 314 314 314
217 211 206 206 208 209 209 209 208 210 211 211 214 219 220 217 212 211 212 213 213 217 221 225 228 231 234 237 241 245 247 249 252 255 258 261 262 263 264 266 266 268 270 273 275 277 279 283 286 289 293 296 298 299 298 297 296 297 298 299 299 300 301 302 304 306 308 309 311 312 313 314 314 314
214 207 205 205 206 207 207 207 208 209 210 212 215 216 213 208 205 207 210 212 216 222 226 227 227 229 232 237 241 244 247 250 252 255 257 259 260 261 262 264 265 267 269 271 274 276 278 281 285 290 294 297 300 300 298 296 297 298 299 300 301 301 302 304 306 308 309 310 311 312 313 313 312 313
210 204 203 203 204 205 205 206 207 209 212 215 214 208 203 201 201 203 207 213 221 227 226 223 225 230 235 240 243 245 246 248 250 253 256 257 258 260 262 264 265 267 269 272 275 277 279 281 285 290 294 298 300 299 297 297 298 299 300 301 301 302 304 305 307 308 310 310 311 312 312 312 312 313
207 202 200 200 201 202 203 205 208 211 211 209 202 197 197 199 200 201 205 211 218 223 224 225 229 235 239 241 242 243 244 247 250 254 256 257 258 260 262 264 266 268 270 273 276 278 280 282 286 289 293 297 300 299 297 297 299 300 300 301 302 303 305 306 308 309 310 310 311 311 311 312 313 314
203 198 197 197 198 199 202 205 205 203 200 195 190 188 193 197 200 201 203 207 212 216 221 227 232 236 238 238 240 243 246 250 254 256 256 256 258 260 263 265 267 269 271 274 277 280 282 284 286 289 293 298 300 299 297 298 299 300 300 301 302 303 305 307 308 309 309 310 311 311 312 313 315 316
198 194 194 194 195 198 202 201 193 188 189 191 191 192 194 197 200 202 203 207 211 214 220 227 231 234 237 240 244 248 251 254 256 256 255 257 259 261 264 265 268 270 272 275 278 280 282 284 287 291 295 298 299 298 297 299 300 300 301 302 302 303 305 306 307 308 309 311 312 313 314 315 316 318
193 191 191 192 194 197 198 194 187 185 188 193 195 196 197 200 204 206 207 210 213 218 225 230 232 236 241 244 247 250 252 255 256 255 256 258 260 263 264 266 268 271 272 275 279 281 283 285 290 294 296 298 299 299 299 301 301 301 302 302 302 303 304 305 306 308 309 312 313 314 315 317 319 320
187 188 190 192 195 195 192 191 190 189 190 192 194 196 198 201 205 209 211 214 218 224 229 231 234 239 243 243 245 249 251 253 255 256 258 259 262 264 266 268 270 272 273 276 280 283 286 289 292 294 296 298 300 300 301 301 301 300 300 300 301 303 304 305 307 309 311 313 314 315 317 319 320 321
184 187 191 196 198 195 191 191 192 190 190 191 193 196 199 203 207 210 214 217 222 226 229 232 236 239 238 240 244 247 250 254 256 258 259 261 263 265 268 271 273 274 276 279 283 287 290 292 293 294 296 298 299 300 300 301 300 299 299 300 302 303 304 306 309 311 313 314 315 317 318 319 320 321
187 191 193 196 196 193 191 191 190 189 191 193 195 199 204 207 210 214 217 220 223 227 230 232 233 233 235 241 246 250 254 258 260 261 262 264 265 268 271 273 275 277 279 283 287 290 292 292 293 294 295 296 297 299 300 300 300 300 300 302 303 305 307 309 311 313 314 316 317 318 318 319 320 321
189 192 193 193 191 188 188 189 190 191 193 195 198 203 206 209 213 215 217 219 222 225 226 227 229 233 240 246 251 256 260 262 263 264 265 266 267 269 272 274 277 280 284 287 290 291 292 292 293 293 294 295 297 299 300 300 300 301 303 304 306 308 309 311 313 314 315 316 317 317 318 319 320 321
188 192 196 194 190 186 185 187 189 192 195 197 200 202 203 206 209 212 214 217 219 221 223 227 232 239 247 254 258 261 262 263 264 265 266 268 270 271 274 277 281 284 287 289 290 291 292 292 293 293 294 296 298 299 300 300 301 302 304 306 308 310 311 312 313 314 315 316 316 317 318 320 321 322
193 199 200 196 192 189 187 187 189 191 194 197 199 200 201 204 207 209 211 213 216 221 226 231 238 247 257 263 265 265 266 268 269 268 268 270 273 275 278 281 284 286 288 289 290 291 292 293 294 295 296 298 299 299 300 301 302 303 304 306 308 309 310 311 312 313 314 316 317 318 319 320 321 322
210 209 201 194 191 190 189 189 190 193 195 197 198 200 202 204 206 208 210 214 221 225 227 232 244 253 257 259 261 264 268 272 272 270 270 272 276 279 281 283 284 286 288 290 291 292 294 295 296 297 298 299 299 299 301 302 303 304 305 306 308 309 309 310 311 313 315 316 317 317 319 320 321 322
205 200 192 188 188 189 191 191 193 196 198 199 202 204 204 202 204 208 214 218 221 221 224 235 246 250 252 255 260 264 268 270 270 269 270 273 277 280 281 282 284 286 289 292 293 295 297 298 299 298 298 298 299 300 302 304 305 306 307 308 309 309 309 310 312 313 315 316 317 318 319 320 321 322
185 184 184 184 185 189 192 192 193 196 198 199 202 203 202 203 210 217 218 218 218 222 232 241 246 251 257 262 265 267 268 268 268 268 271 274 277 279 281 283 285 288 291 294 296 297 298 299 298 297 297 298 300 302 304 305 306 307 308 309 309 309 310 311 313 314 315 316 317 318 319 320 321 323
180 179 180 183 186 189 190 190 191 195 198 200 202 204 206 212 220 222 219 218 222 232 240 244 247 253 261 266 270 271 270 269 269 271 272 275 278 281 283 285 286 289 292 295 297 298 298 297 297 296 297 299 302 303 304 306 306 307 308 309 309 310 312 313 314 315 316 317 318 319 320 321 322 323
181 179 179 182 185 188 191 194 196 199 202 205 207 211 216 222 224 223 223 224 228 236 243 247 250 254 260 266 271 273 273 272 273 274 275 277 279 282 283 285 287 289 292 295 296 297 297 296 296 297 299 301 303 303 305 306 306 307 308 309 310 312 314 314 316 317 318 319 320 321 322 323 324 325
185 185 187 189 188 188 190 195 199 202 205 208 211 215 220 223 225 226 228 229 232 239 246 252 255 258 261 266 269 271 274 276 278 278 278 279 280 281 283 285 287 289 291 293 295 295 295 295 296 298 300 301 303 304 305 306 307 308 309 309 311 313 314 316 317 318 319 320 321 322 324 325 326 327
Height
5759 5763 5767 5771 5775 5778 5779 5780 5782 5786 5790 5794 5797 5799 5803 5806 5808 5811 5814 5816 5817 5818 5817 5818 5820 5821 5822 5823 5824 5825 5826 5826 5827 5827 5828 5828 5829 5829 5829 5829 5829 5828 5828 5827 5827 5826 5825 5825 5824 5822 5821 5820 5819 5817 5815 5813 5811 5809 5807 5805 5804 5802 5801 5799 5797 5795 5793 5791 5789 5787 5784 5782 5780 5777
5753 5757 5761 5765 5769 5773 5775 5775 5776 5779 5784 5787 5791 5794 5797 5800 5803 5807 5809 5810 5811 5812 5812 5814 5815 5816 5817 5818 5820 5821 5822 5823 5823 5824 5824 5825 5825 5825 5825 5825 5825 5824 5824 5823 5823 5822 5821 5821 5820 5818 5817 5816 5815 5813 5811 5809 5807 5805 5803 5802 5800 5799 5797 5795 5793 5792 5790 5788 5785 5783 5780 5778 5775 5773
5748 5752 5755 5759 5763 5767 5770 5770 5770 5773 5777 5781 5784 5788 5791 5795 5798 5801 5803 5804 5806 5807 5808 5809 5810 5811 5813 5815 5816 5817 5818 5819 5819 5820 5820 5820 5821 5821 5821 5821 5821 5820 5820 5819 5819 5818 5817 5817 5816 5814 5813 5812 5810 5809 5807 5805 5803 5801 5800 5798 5796 5795 5793 5791 5789 5788 5786 5783 5781 5778 5776 5773 5771 5769
5742 5745 5749 5753 5757 5760 5764 5765 5764 5767 5772 5775 5778 5782 5785 5789 5793 5796 5797 5799 5801 5803 5803 5804 5805 5807 5809 5811 5812 5813 5814 5815 5815 5815 5816 5816 5817 5817 5817 5817 5817 5816 5816 5815 5814 5814 5813 5813 5812 5810 5809 5808 5806 5804 5803 5801 5799 5797 5796 5794 5792 5791 5789 5787 5785 5783 5782 5779 5777 5774 5771 5768 5766 5764
5735 5739 5742 5746 5750 5754 5757 5759 5759 5762 5767 5770 5773 5776 5779 5783 5787 5790 5791 5793 5796 5798 5798 5799 5801 5803 5806 5807 5808 5809 5810 5810 5810 5811 5812 5812 5813 5813 5813 5813 5813 5812 5812 5811 5810 5810 5810 5809 5807 5806 5805 5803 5802 5800 5798 5797 5795 5793 5792 5790 5788 5786 5785 5783 5781 5779 5777 5775 5772 5769 5766 5764 5761 5759
5728 5732 5735 5739 5743 5747 5750 5753 5754 5757 5760 5764 5767 5770 5773 5777 5781 5784 5785 5787 5791 5792 5793 5794 5796 5799 5801 5802 5803 5804 5805 5805 5806 5807 5808 5809 5809 5809 5809 5809 5808 5808 5808 5807 5806 5806 5806 5804 5803 5802 5801 5799 5798 5796 5795 5793 5791 5790 5788 5786 5784 5782 5780 5778 5777 5775 5773 5770 5767 5764 5762 5759 5756 5754
5720 5724 5728 5732 5736 5739 5743 5747 5749 5751 5754 5758 5761 5764 5768 5771 5774 5777 5779 5781 5785 5787 5787 5789 5792 5795 5797 5798 5798 5799 5800 5801 5802 5803 5804 5804 5804 5805 5804 5804 5804 5804 5803 5803 5803 5802 5801 5800 5799 5797 5797 5795 5794 5792 5791 5789 5787 5786 5784 5782 5780 5778 5776 5774 5772 5770 5768 5765 5763 5760 5757 5754 5751 5748
5711 5715 5720 5725 5729 5733 5736 5740 5743 5746 5749 5752 5755 5758 5762 5765 5768 5771 5773 5776 5780 5781 5782 5784 5787 5789 5791 5792 5793 5794 5795 5797 5798 5799 5799 5800 5800 5800 5800 5800 5800 5799 5799 5799 5798 5798 5797 5796 5794 5793 5792 5791 5790 5789 5787 5785 5784 5782 5780 5778 5776 5773 5771 5769 5767 5765 5763 5761 5758 5755 5752 5749 5746 5743
5703 5708 5712 5718 5722 5726 5729 5733 5738 5742 5743 5746 5750 5753 5756 5759 5762 5765 5767 5771 5774 5776 5777 5780 5782 5784 5786 5788 5789 5790 5791 5792 5793 5793 5794 5794 5795 5795 5795 5795 5795 5795 5794 5794 5794 5793 5792 5791 5790 5789 5788 5787 5786 5785 5783 5781 5779 5777 5775 5773 5771 5769 5767 5765 5763 5761 5758 5756 5753 5750 5747 5744 5741 5738
5695 5700 5705 5710 5714 5718 5722 5727 5732 5736 5738 5741 5744 5748 5751 5753 5756 5759 5761 5765 5768 5770 5772 5774 5776 5779 5781 5783 5784 5785 5787 5787 5788 5788 5789 5790 5790 5790 5790 5790 5790 5790 5790 5790 5789 5789 5788 5787 5785 5785 5784 5783 5782 5781 5779 5777 5775 5773 5771 5769 5766 5764 5762 5760 5758 5756 5754 5751 5748 5745 5742 5739 5736 5733
5687 5692 5697 5701 5706 5710 5716 5721 5726 5731 5733 5736 5739 5743 5746 5747 5750 5753 5756 5760 5763 5765 5767 5768 5771 5774 5776 5778 5779 5780 5781 5782 5783 5784 5784 5784 5785 5785 5786 5786 5786 5785 5785 5785 5785 5784 5783 5782 5781 5781 5780 5779 5778 5777 5775 5773 5770 5768 5766 5764 5761 5759 5757 5755 5753 5751 5749 5746 5743 5740 5737 5734 5731 5728
5679 5684 5688 5693 5698 5704 5709 5715 5720 5725 5728 5730 5734 5738 5740 5742 5745 5748 5751 5754 5757 5759 5762 5763 5766 5769 5771 5773 5774 5775 5776 5778 5778 5778 5778 5779 5780 5781 5781 5781 5781 5780 5780 5780 5780 5779 5778 5777 5777 5776 5776 5774 5773 5772 5770 5768 5766 5763 5761 5759 5757 5754 5752 5750 5748 5746 5744 5741 5738 5735 5732 5729 5726 5723
5671 5676 5680 5685 5691 5696 5702 5708 5713 5718 5722 5725 5728 5733 5735 5736 5740 5744 5747 5749 5752 5755 5757 5758 5762 5765 5766 5768 5770 5771 5772 5773 5773 5772 5773 5774 5776 5776 5776 5776 5775 5775 5775 5775 5775 5774 5773 5772 5772 5772 5771 5770 5769 5767 5765 5763 5761 5758 5756 5754 5752 5749 5747 5745 5743 5741 5738 5736 5733 5730 5727 5724 5721 5717
5663 5668 5673 5678 5684 5689 5695 5701 5706 5711 5715 5719 5722 5727 5730 5731 5734 5738 5741 5744 5748 5750 5752 5754 5758 5762 5763 5763 5764 5766 5767 5768 5768 5768 5770 5771 5771 5771 5770 5770 5771 5771 5771 5770 5770 5769 5768 5768 5767 5767 5766 5765 5764 5762 5760 5758 5756 5753 5751 5749 5747 5745 5742 5740 5738 5736 5733 5730 5728 5725 5722 5719 5715 5711
5655 5660 5665 5671 5676 5682 5688 5694 5699 5704 5708 5711 5715 5720 5724 5726 5729 5733 5736 5740 5743 5746 5748 5750 5754 5758 5758 5757 5759 5762 5763 5763 5764 5766 5766 5766 5766 5766 5766 5766 5766 5766 5766 5765 5765 5765 5764 5763 5762 5762 5761 5760 5759 5757 5755 5753 5750 5748 5746 5744 5742 5740 5738 5735 5733 5731 5728 5725 5723 5720 5716 5713 5709 5706
5647 5652 5657 5662 5668 5674 5681 5687 5692 5697 5700 5704 5709 5713 5718 5721 5723 5727 5731 5734 5738 5742 5744 5746 5749 5752 5752 5753 5756 5758 5758 5759 5761 5762 5761 5761 5761 5761 5761 5761 5762 5761 5761 5761 5761 5760 5759 5758 5758 5758 5757 5755 5754 5752 5750 5747 5745 5743 5741 5739 5737 5735 5732 5730 5728 5725 5723 5720 5717 5714 5711 5707 5703 5700
5638 5644 5649 5655 5660 5667 5674 5680 5685 5690 5695 5700 5704 5707 5712 5715 5717 5722 5726 5729 5733 5738 5741 5741 5744 5746 5747 5750 5753 5753 5753 5757 5759 5757 5755 5757 5757 5756 5756 5757 5757 5756 5756 5756 5756 5755 5754 5753 5753 5753 5752 5750 5749 5747 5745 5743 5741 5739 5737 5735 5732 5730 5727 5725 5723 5720 5717 5715 5712 5709 5705 5701 5698 5695
5630 5636 5642 5648 5654 5660 5667 5673 5678 5684 5690 5695 5699 5702 5705 5709 5712 5717 5721 5723 5727 5733 5735 5736 5739 5743 5745 5748 5749 5748 5749 5753 5754 5752 5753 5754 5754 5752 5752 5752 5752 5752 5752 5752 5751 5750 5750 5749 5748 5748 5746 5745 5744 5742 5740 5738 5736 5735 5732 5730 5727 5725 5722 5720 5717 5715 5712 5709 5706 5703 5700 5696 5693 5689
5622 5628 5634 5640 5647 5653 5659 5665 5672 5678 5684 5689 5692 5695 5700 5704 5708 5712 5715 5718 5721 5726 5729 5732 5736 5739 5741 5744 5745 5745 5746 5748 5748 5748 5749 5749 5749 5748 5748 5748 5748 5748 5748 5747 5746 5746 5745 5745 5744 5743 5742 5740 5739 5738 5735 5734 5732 5730 5728 5725 5723 5720 5718 5715 5712 5709 5706 5703 5700 5698 5694 5691 5687 5684
5614 5620 5626 5633 5640 5646 5652 5658 5664 5671 5678 5683 5687 5690 5695 5700 5704 5707 5710 5713 5716 5720 5723 5727 5730 5733 5736 5739 5740 5740 5743 5743 5743 5743 5744 5744 5744 5744 5743 5744 5744 5743 5743 5742 5741 5741 5741 5740 5740 5739 5737 5736 5735 5733 5731 5729 5727 5725 5723 5720 5718 5715 5713 5710 5707 5703 5700 5698 5695 5692 5689 5685 5682 5678
5607 5613 5619 5626 5633 5639 5644 5650 5657 5664 5670 5676 5680 5685 5690 5695 5699 5702 5706 5709 5712 5715 5718 5721 5724 5727 5730 5733 5734 5734 5736 5738 5738 5738 5739 5739 5739 5739 5740 5740 5739 5738 5738 5738 5737 5736 5736 5736 5735 5734 5733 5731 5730 5728 5726 5724 5722 5720 5718 5715 5713 5710 5708 5705 5701 5698 5695 5692 5689 5686 5683 5680 5676 5671
5600 5605 5612 5619 5626 5632 5638 5644 5650 5657 5664 5669 5674 5680 5685 5690 5694 5697 5701 5704 5707 5710 5712 5715 5719 5722 5725 5727 5728 5729 5731 5732 5733 5733 5733 5734 5735 5735 5735 5735 5734 5734 5734 5733 5732 5732 5732 5731 5730 5729 5728 5726 5725 5723 5722 5720 5717 5715 5713 5711 5708 5705 5702 5699 5696 5693 5689 5686 5683 5680 5677 5673 5669 5665
5594 5599 5605 5613 5620 5626 5632 5638 5645 5652 5659 5664 5670 5675 5680 5685 5689 5693 5697 5700 5702 5705 5708 5711 5715 5718 5721 5722 5724 5725 5726 5727 5727 5728 5728 5729 5730 5731 5731 5730 5730 5730 5729 5729 5728 5727 5727 5726 5725 5724 5723 5722 5721 5719 5717 5715 5713 5711 5708 5706 5703 5700 5697 5694 5690 5687 5684 5680 5677 5674 5670 5667 5663 5659
5588 5593 5599 5607 5614 5620 5626 5633 5641 5648 5654 5660 5666 5671 5676 5680 5684 5689 5693 5695 5697 5700 5703 5707 5711 5713 5715 5717 5719 5720 5721 5721 5722 5723 5724 5725 5726 5726 5726 5726 5726 5725 5725 5725 5724 5722 5722 5721 5721 5720 5719 5717 5716 5715 5713 5711 5708 5706 5703 5700 5697 5694 5691 5688 5685 5681 5677 5674 5671 5667 5664 5659 5655 5652
5582 5587 5594 5602 5609 5616 5622 5629 5636 5643 5649 5655 5660 5666 5671 5674 5678 5683 5687 5690 5694 5697 5700 5703 5706 5708 5710 5712 5713 5715 5716 5717 5718 5719 5720 5721 5721 5721 5721 5722 5721 5721 5721 5720 5719 5718 5717 5717 5716 5716 5714 5713 5712 5710 5708 5706 5703 5701 5698 5695 5693 5689 5686 5682 5679 5675 5671 5667 5664 5661 5657 5653 5649 5645
5576 5581 5588 5596 5604 5611 5618 5625 5631 5637 5644 5650 5655 5660 5664 5668 5672 5678 5681 5684 5689 5693 5696 5699 5701 5703 5705 5707 5708 5710 5711 5712 5713 5714 5716 5717 5717 5717 5717 5717 5717 5717 5716 5715 5714 5714 5713 5713 5712 5711 5710 5709 5707 5705 5703 5700 5698 5695 5692 5690 5688 5684 5681 5677 5673 5669 5665 5661 5658 5655 5651 5647 5643 5639
5571 5577 5583 5590 5597 5605 5613 5620 5627 5634 5640 5646 5651 5655 5659 5663 5667 5672 5676 5680 5685 5688 5691 5694 5697 5699 5700 5702 5703 5705 5706 5707 5709 5711 5712 5712 5712 5713 5713 5713 5712 5712 5712 5711 5710 5710 5709 5709 5708 5707 5705 5704 5702 5699 5697 5694 5691 5688 5686 5684 5682 5679 5675 5672 5668 5663 5660 5656 5653 5650 5646 5642 5638 5634
5566 5571 5578 5585 5593 5602 5609 5617 5624 5631 5637 5641 5646 5650 5654 5659 5663 5668 5673 5678 5681 5683 5686 5689 5692 5693 5695 5697 5698 5700 5702 5704 5705 5706 5707 5708 5708 5708 5708 5708 5708 5708 5707 5707 5706 5706 5705 5704 5703 5702 5701 5699 5696 5694 5691 5689 5686 5683 5680 5678 5676 5673 5670 5666 5662 5658 5654 5651 5647 5644 5641 5637 5633 5629
5561 5566 5573 5581 5590 5599 5606 5613 5620 5626 5631 5636 5641 5646 5651 5656 5660 5665 5671 5676 5678 5680 5682 5685 5686 5688 5690 5693 5695 5696 5698 5700 5701 5702 5703 5703 5704 5704 5704 5704 5704 5704 5703 5703 5703 5702 5701 5700 5699 5697 5696 5694 5691 5689 5686 5683 5681 5678 5675 5672 5670 5667 5664 5660 5657 5653 5649 5645 5642 5639 5636 5632 5628 5624
5557 5563 5571 5579 5588 5596 5603 5609 5616 5621 5625 5630 5636 5641 5647 5652 5656 5662 5668 5672 5674 5675 5677 5680 5682 5684 5687 5689 5690 5692 5694 5695 5696 5697 5698 5699 5699 5699 5699 5699 5700 5700 5700 5699 5699 5698 5697 5696 5694 5693 5691 5689 5686 5684 5681 5678 5676 5673 5670 5667 5664 5661 5658 5655 5652 5648 5644 5641 5637 5634 5631 5627 5622 5617
5554 5561 5569 5577 5585 5592 5599 5606 5612 5615 5619 5625 5631 5636 5642 5647 5652 5657 5661 5665 5667 5669 5672 5676 5679 5681 5683 5685 5686 5688 5689 5691 5692 5693 5694 5694 5695 5695 5695 5696 5696 5696 5696 5695 5694 5693 5692 5691 5689 5688 5686 5684 5681 5679 5676 5673 5670 5668 5665 5663 5659 5656 5653 5650 5647 5643 5640 5636 5632 5629 5625 5621 5616 5611
5553 5560 5568 5575 5583 5590 5596 5602 5607 5611 5616 5622 5628 5633 5638 5643 5648 5651 5654 5657 5660 5664 5669 5672 5675 5677 5679 5680 5682 5683 5685 5687 5688 5689 5689 5690 5691 5692 5692 5692 5692 5692 5691 5691 5690 5688 5687 5685 5684 5683 5681 5679 5676 5673 5671 5668 5665 5662 5660 5657 5655 5652 5649 5646 5643 5639 5636 5631 5627 5622 5619 5615 5610 5604
5553 5560 5566 5574 5581 5586 5592 5598 5603 5608 5614 5620 5626 5631 5635 5640 5644 5647 5650 5653 5658 5662 5666 5668 5671 5673 5674 5676 5678 5680 5681 5683 5684 5684 5685 5686 5687 5688 5688 5688 5687 5687 5686 5686 5685 5683 5682 5680 5679 5678 5676 5674 5671 5668 5666 5663 5660 5657 5655 5652 5650 5647 5644 5641 5638 5635 5631 5627 5622 5617 5612 5607 5603 5597
5552 5559 5566 5573 5578 5583 5589 5595 5600 5606 5612 5618 5623 5628 5633 5637 5640 5643 5647 5651 5656 5659 5662 5664 5667 5669 5670 5672 5674 5676 5677 5679 5679 5680 5681 5682 5683 5683 5683 5682 5682 5682 5681 5680 5679 5678 5677 5675 5674 5672 5671 5668 5666 5663 5661 5658 5656 5653 5651 5648 5645 5642 5639 5636 5633 5629 5625 5622 5618 5612 5606 5601 5596 5591
5553 5560 5567 5573 5577 5582 5588 5593 5598 5604 5610 5615 5620 5625 5629 5633 5637 5641 5645 5649 5653 5656 5658 5661 5663 5665 5667 5669 5670 5672 5673 5675 5676 5676 5677 5677 5677 5677 5677 5677 5677 5676 5676 5675 5674 5673 5671 5670 5669 5667 5665 5663 5661 5659 5657 5654 5651 5649 5647 5644 5641 5637 5633 5630 5627 5623 5619 5615 5611 5607 5601 5596 5591 5586
5555 5561 5567 5572 5577 5582 5587 5592 5597 5602 5607 5612 5617 5622 5626 5630 5635 5639 5643 5647 5650 5652 5655 5658 5660 5661 5663 5665 5666 5668 5670 5671 5672 5672 5672 5672 5672 5672 5672 5672 5671 5671 5670 5669 5668 5667 5666 5664 5663 5662 5660 5658 5656 5654 5652 5650 5646 5644 5641 5638 5635 5631 5627 5624 5620 5617 5613 5609 5605 5601 5597 5592 5587 5582
5555 5561 5566 5570 5574 5580 5586 5591 5596 5601 5606 5611 5616 5620 5624 5629 5633 5637 5640 5643 5647 5650 5652 5654 5656 5658 5659 5661 5663 5665 5666 5667 5667 5667 5667 5667 5667 5667 5667 5667 5666 5666 5665 5664 5663 5662 5661 5659 5658 5656 5654 5652 5650 5648 5647 5645 5642 5638 5635 5632 5629 5625 5621 5618 5614 5611 5608 5604 5600 5596 5592 5588 5583 5577
5555 5561 5565 5569 5574 5578 5583 5589 5594 5599 5604 5609 5613 5617 5621 5626 5630 5633 5637 5640 5643 5646 5648 5650 5652 5654 5656 5658 5659 5660 5661 5662 5662 5662 5662 5662 5662 5662 5662 5661 5661 5661 5660 5659 5658 5657 5656 5654 5653 5650 5648 5646 5644 5642 5640 5639 5637 5634 5630 5626 5622 5619 5616 5612 5609 5606 5603 5600 5595 5591 5587 5582 5578 5573
5555 5560 5564 5568 5573 5577 5582 5587 5592 5597 5602 5607 5611 5615 5619 5623 5627 5631 5634 5637 5640 5642 5645 5647 5649 5651 5652 5653 5654 5655 5656 5656 5656 5657 5657 5657 5657 5657 5657 5656 5656 5655 5655 5654 5653 5652 5651 5649 5647 5645 5642 5640 5638 5635 5633 5631 5630 5628 5625 5622 5618 5615 5612 5608 5605 5602 5599 5595 5591 5587 5582 5577 5573 5568
5554 5557 5561 5566 5572 5577 5582 5587 5591 5596 5600 5605 5608 5612 5616 5620 5624 5628 5631 5633 5636 5639 5641 5643 5645 5646 5648 5649 5650 5650 5651 5651 5651 5651 5651 5652 5652 5652 5652 5651 5651 5651 5650 5649 5648 5647 5645 5643 5641 5639 5636 5634 5632 5630 5627 5625 5623 5621 5619 5617 5614 5611 5607 5604 5600 5597 5594 5590 5587 5583 5578 5573 5568 5563
5552 5555 5560 5566 5573 5578 5583 5586 5590 5595 5599 5603 5606 5610 5614 5618 5622 5625 5628 5631 5633 5635 5637 5639 5641 5642 5643 5644 5645 5645 5645 5646 5646 5646 5646 5646 5647 5647 5647 5647 5646 5646 5645 5644 5643 5641 5640 5638 5635 5633 5631 5629 5627 5624 5622 5619 5617 5614 5612 5610 5608 5605 5602 5599 5596 5592 5589 5585 5582 5578 5574 5568 5563 5558
5553 5556 5561 5567 5573 5578 5582 5586 5590 5593 5597 5601 5604 5608 5613 5617 5620 5623 5625 5628 5629 5631 5633 5634 5636 5638 5639 5639 5639 5640 5641 5641 5641 5642 5642 5642 5642 5642 5642 5642 5641 5641 5640 5639 5638 5636 5634 5632 5630 5628 5626 5624 5622 5619 5617 5613 5610 5608 5606 5603 5601 5599 5596 5593 5590 5587 5584 5581 5577 5573 5568 5563 5558 5552
5555 5559 5563 5568 5573 5577 5581 5585 5589 5592 5596 5600 5603 5607 5611 5615 5617 5620 5622 5624 5626 5627 5628 5630 5632 5634 5634 5634 5635 5635 5636 5637 5637 5637 5637 5638 5638 5638 5637 5637 5637 5636 5635 5634 5632 5631 5629 5627 5625 5623 5621 5619 5617 5614 5612 5609 5606 5603 5600 5597 5595 5593 5590 5587 5584 5581 5578 5574 5571 5567 5562 5558 5552 5547
5556 5560 5564 5569 5573 5577 5581 5584 5588 5592 5595 5599 5603 5606 5609 5612 5614 5616 5618 5620 5622 5623 5625 5627 5628 5629 5630 5630 5631 5632 5632 5633 5633 5633 5633 5633 5633 5633 5633 5632 5632 5631 5630 5628 5627 5625 5623 5622 5620 5618 5616 5614 5612 5610 5607 5605 5601 5598 5595 5592 5589 5586 5583 5581 5578 5575 5572 5568 5564 5560 5555 5550 5545 5540
5557 5561 5564 5568 5572 5576 5580 5583 5587 5590 5594 5598 5601 5603 5606 5608 5610 5613 5615 5616 5618 5620 5621 5623 5624 5625 5626 5627 5628 5628 5629 5629 5629 5629 5628 5628 5628 5628 5628 5627 5626 5625 5624 5623 5621 5620 5618 5616 5615 5613 5611 5609 5607 5605 5602 5600 5597 5594 5591 5588 5584 5581 5578 5575 5572 5569 5566 5562 5558 5554 5549 5544 5539 5534